• In Belarus
  • List of Countries
  • For 7 days
  • Water Temperature
  • Satellite Maps
  • Weather Map
  • Weather Widgets
  • user-avatar
    Login

    Hourly Weather Dushanbe

    Today, 21 September, Friday

    Time Temperature Precipitation Wind Pressure Humidity
    00:00 +21°C° 0.6 mm 2 mps 689 mmHg 39%
    01:00 +21°C° 0.6 mm 2 mps 689 mmHg 42%
    02:00 +20°C° 0.6 mm 2 mps 689 mmHg 44%
    03:00 +20°C° 0.5 mm 2 mps 689 mmHg 46%
    04:00 +19°C° 0.5 mm 2 mps 689 mmHg 48%
    05:00 +19°C° 0.5 mm 2 mps 689 mmHg 50%
    06:00 +20°C° 0.3 mm 2 mps 690 mmHg 50%
    07:00 +20°C° 0.3 mm 2 mps 690 mmHg 49%
    08:00 +20°C° 0.3 mm 2 mps 690 mmHg 49%
    09:00 +21°C° 0.1 mm 2 mps 691 mmHg 49%
    10:00 +23°C° 0.1 mm 2 mps 691 mmHg 48%
    11:00 +25°C° 0 mm 2 mps 691 mmHg 47%
    12:00 +25°C° 0.1 mm 2 mps 691 mmHg 46%
    13:00 +26°C° 0.1 mm 2 mps 691 mmHg 45%
    14:00 +26°C° 0.1 mm 2 mps 690 mmHg 43%
    15:00 +26°C° 0 mm 2 mps 690 mmHg 43%
    16:00 +26°C° 0 mm 2 mps 690 mmHg 42%
    17:00 +26°C° 0 mm 2 mps 690 mmHg 41%
    18:00 +24°C° 0 mm 2 mps 690 mmHg 44%
    19:00 +23°C° 0 mm 2 mps 690 mmHg 46%
    20:00 +20°C° 0 mm 2 mps 690 mmHg 48%
    21:00 +20°C° 0 mm 2 mps 690 mmHg 49%
    22:00 +19°C° 0 mm 2 mps 690 mmHg 49%
    23:00 +19°C° 0 mm 2 mps 690 mmHg 50%

    Tomorrow, 22 September, Saturday

    Time Temperature Precipitation Wind Pressure Humidity
    00:00 +19°C° 0 mm 2 mps 689 mmHg 51%
    01:00 +19°C° 0 mm 2 mps 689 mmHg 53%
    02:00 +18°C° 0 mm 2 mps 689 mmHg 54%
    03:00 +18°C° 0 mm 2 mps 689 mmHg 55%
    04:00 +18°C° 0 mm 2 mps 689 mmHg 56%
    05:00 +18°C° 0 mm 2 mps 689 mmHg 57%
    06:00 +19°C° 0 mm 2 mps 689 mmHg 54%
    07:00 +21°C° 0 mm 1 mps 689 mmHg 51%
    08:00 +22°C° 0 mm 1 mps 690 mmHg 48%
    09:00 +23°C° 0 mm 1 mps 690 mmHg 45%
    10:00 +25°C° 0 mm 2 mps 690 mmHg 42%
    11:00 +26°C° 0 mm 2 mps 690 mmHg 38%
    12:00 +27°C° 0 mm 2 mps 690 mmHg 37%
    13:00 +27°C° 0 mm 2 mps 690 mmHg 36%
    14:00 +28°C° 0 mm 3 mps 689 mmHg 34%
    15:00 +28°C° 0 mm 3 mps 689 mmHg 34%
    16:00 +27°C° 0 mm 3 mps 689 mmHg 34%
    17:00 +27°C° 0 mm 2 mps 689 mmHg 34%
    18:00 +25°C° 0 mm 2 mps 689 mmHg 37%
    19:00 +24°C° 0 mm 1 mps 689 mmHg 40%
    20:00 +22°C° 0 mm 1 mps 689 mmHg 44%
    21:00 +21°C° 0 mm 1 mps 689 mmHg 44%
    22:00 +21°C° 0 mm 1 mps 689 mmHg 45%
    23:00 +19°C° 0 mm 2 mps 689 mmHg 45%

    Day after tomorrow, 23 September, Sunday

    Time Temperature Precipitation Wind Pressure Humidity
    00:00 +19°C° 0 mm 2 mps 689 mmHg 45%
    01:00 +19°C° 0 mm 2 mps 689 mmHg 46%
    02:00 +18°C° 0 mm 2 mps 689 mmHg 46%
    03:00 +18°C° 0 mm 2 mps 689 mmHg 47%
    04:00 +18°C° 0 mm 2 mps 689 mmHg 49%
    05:00 +17°C° 0 mm 2 mps 689 mmHg 51%
    06:00 +18°C° 0 mm 2 mps 689 mmHg 49%
    07:00 +19°C° 0 mm 2 mps 690 mmHg 47%
    08:00 +20°C° 0 mm 2 mps 690 mmHg 46%
    09:00 +23°C° 0 mm 2 mps 690 mmHg 42%
    10:00 +24°C° 0 mm 2 mps 690 mmHg 39%
    11:00 +25°C° 0 mm 2 mps 690 mmHg 35%
    12:00 +26°C° 0 mm 2 mps 690 mmHg 34%
    13:00 +27°C° 0 mm 2 mps 690 mmHg 32%
    14:00 +27°C° 0 mm 2 mps 689 mmHg 31%
    15:00 +27°C° 0 mm 2 mps 689 mmHg 31%
    16:00 +27°C° 0 mm 2 mps 689 mmHg 31%
    17:00 +26°C° 0 mm 2 mps 689 mmHg 31%
    18:00 +24°C° 0 mm 1 mps 689 mmHg 34%
    19:00 +23°C° 0 mm 1 mps 689 mmHg 38%
    20:00 +19°C° 0 mm 0 mps 689 mmHg 41%
    21:00 +20°C° 0 mm 1 mps 689 mmHg 42%
    22:00 +20°C° 0 mm 1 mps 689 mmHg 43%
    23:00 +19°C° 0 mm 2 mps 689 mmHg 43%

    24 September, Monday

    Time Temperature Precipitation Wind Pressure Humidity
    00:00 +18°C° 0 mm 2 mps 689 mmHg 44%
    01:00 +18°C° 0 mm 2 mps 688 mmHg 44%
    02:00 +18°C° 0 mm 2 mps 688 mmHg 45%
    03:00 +17°C° 0 mm 2 mps 688 mmHg 45%
    04:00 +17°C° 0 mm 2 mps 688 mmHg 45%
    05:00 +17°C° 0 mm 2 mps 688 mmHg 45%
    06:00 +18°C° 0 mm 2 mps 688 mmHg 43%
    07:00 +20°C° 0 mm 1 mps 688 mmHg 40%
    08:00 +21°C° 0 mm 1 mps 689 mmHg 37%
    09:00 +23°C° 0 mm 1 mps 689 mmHg 35%
    10:00 +25°C° 0 mm 1 mps 689 mmHg 32%
    11:00 +26°C° 0 mm 1 mps 689 mmHg 29%
    12:00 +27°C° 0 mm 1 mps 689 mmHg 28%
    13:00 +28°C° 0 mm 1 mps 688 mmHg 26%
    14:00 +28°C° 0 mm 1 mps 688 mmHg 25%
    15:00 +28°C° 0 mm 1 mps 688 mmHg 25%
    16:00 +28°C° 0 mm 1 mps 688 mmHg 24%
    17:00 +27°C° 0 mm 1 mps 688 mmHg 24%
    18:00 +26°C° 0 mm 1 mps 687 mmHg 28%
    19:00 +24°C° 0 mm 1 mps 687 mmHg 32%
    20:00 +22°C° 0 mm 1 mps 687 mmHg 35%
    21:00 +21°C° 0 mm 1 mps 687 mmHg 36%
    22:00 +21°C° 0 mm 1 mps 687 mmHg 37%
    23:00 +20°C° 0 mm 1 mps 687 mmHg 37%

    25 September, Tuesday

    Time Temperature Precipitation Wind Pressure Humidity
    00:00 +20°C° 0 mm 1 mps 687 mmHg 38%
    01:00 +19°C° 0 mm 2 mps 687 mmHg 39%
    02:00 +18°C° 0 mm 2 mps 687 mmHg 40%
    03:00 +18°C° 0 mm 2 mps 687 mmHg 40%
    04:00 +18°C° 0 mm 2 mps 687 mmHg 40%
    05:00 +17°C° 0 mm 2 mps 687 mmHg 40%
    06:00 +18°C° 0 mm 2 mps 688 mmHg 37%
    07:00 +20°C° 0 mm 2 mps 688 mmHg 34%
    08:00 +21°C° 0 mm 2 mps 689 mmHg 31%
    09:00 +23°C° 0 mm 2 mps 689 mmHg 28%
    10:00 +25°C° 0 mm 1 mps 690 mmHg 26%
    11:00 +26°C° 0 mm 1 mps 690 mmHg 23%
    12:00 +27°C° 0 mm 2 mps 689 mmHg 23%
    13:00 +27°C° 0 mm 2 mps 689 mmHg 22%
    14:00 +28°C° 0 mm 2 mps 689 mmHg 21%
    15:00 +28°C° 0 mm 2 mps 689 mmHg 21%
    16:00 +27°C° 0 mm 2 mps 689 mmHg 21%
    17:00 +27°C° 0 mm 2 mps 689 mmHg 21%
    18:00 +25°C° 0 mm 2 mps 688 mmHg 23%
    19:00 +23°C° 0 mm 1 mps 688 mmHg 26%
    20:00 +21°C° 0 mm 1 mps 688 mmHg 29%
    21:00 +21°C° 0 mm 1 mps 688 mmHg 29%
    22:00 +21°C° 0 mm 1 mps 688 mmHg 29%
    23:00 +20°C° 0 mm 2 mps 688 mmHg 29%

    26 September, Wednesday

    Time Temperature Precipitation Wind Pressure Humidity
    00:00 +19°C° 0 mm 2 mps 688 mmHg 30%
    01:00 +19°C° 0 mm 2 mps 688 mmHg 30%
    02:00 +18°C° 0 mm 2 mps 688 mmHg 31%
    03:00 +18°C° 0 mm 2 mps 688 mmHg 32%
    04:00 +18°C° 0 mm 2 mps 688 mmHg 33%
    05:00 +17°C° 0 mm 2 mps 687 mmHg 34%
    06:00 +19°C° 0 mm 2 mps 688 mmHg 32%
    07:00 +21°C° 0 mm 1 mps 688 mmHg 30%
    08:00 +22°C° 0 mm 1 mps 689 mmHg 28%
    09:00 +24°C° 0 mm 1 mps 689 mmHg 26%
    10:00 +25°C° 0 mm 1 mps 689 mmHg 24%
    11:00 +27°C° 0 mm 1 mps 689 mmHg 22%
    12:00 +28°C° 0 mm 1 mps 689 mmHg 21%
    13:00 +28°C° 0 mm 1 mps 689 mmHg 20%
    14:00 +29°C° 0 mm 2 mps 688 mmHg 19%
    15:00 +28°C° 0 mm 2 mps 688 mmHg 19%
    16:00 +28°C° 0 mm 2 mps 688 mmHg 19%
    17:00 +28°C° 0 mm 1 mps 688 mmHg 19%
    18:00 +26°C° 0 mm 1 mps 688 mmHg 22%
    19:00 +24°C° 0 mm 1 mps 688 mmHg 25%
    20:00 +22°C° 0 mm 1 mps 688 mmHg 28%
    21:00 +21°C° 0 mm 1 mps 688 mmHg 29%
    22:00 +21°C° 0 mm 1 mps 688 mmHg 30%
    23:00 +20°C° 0 mm 1 mps 688 mmHg 31%
    Show more